Regional Weather Roundup
Issued by NWS Portland, ME

Current Version | Previous Version | Text Only | Print | Product List | Glossary Off
Versions: 1 2 3 4 5 6 7 8 9 10 11 12 13 14 15 16 17 18 19 20 21 22 23 24 25 26 27 28 29 30 31 32 33 34 35 36 37 38 39 40 41 42 43 44 45 46 47 48 49 50
000 ASUS41 KGYX 181310 RWRGYX WEATHER ROUNDUP FOR MAINE AND NEW HAMPSHIRE NATIONAL WEATHER SERVICE GRAY ME 900 AM EDT WED JUL 18 2018 MEZ002-005-006-010-012-015-018-020-021-024-026-027-029-181400- MAINE CITY SKY/WX TMP DP RH WIND PRES REMARKS PORTLAND FAIR 71 61 70 NW9 29.85S SANFORD FAIR 71 62 73 W10 29.87R BAR HARBOR FAIR 68 63 84 NW7 29.79S WISCASSET FAIR 69 61 75 W8 29.85R ROCKLAND FAIR 69 63 81 NW8 29.81S FRYEBURG FAIR 70 57 63 W6 29.88S LEWISTONAUBURN FAIR 67 57 70 NW10 29.87R AUGUSTA FAIR 67 58 72 NW9G17 29.85R WATERVILLE FAIR 67 59 75 VRB6 29.83R BANGOR FAIR 67 61 81 NW9 29.81R GREENVILLE N/A 59 56 89 NW8 29.85R MILLINOCKET N/A 67 57 70 W9 29.82R HOULTON CLOUDY 63 60 90 N9 29.78R PRESQUE ISLE CLOUDY 64 56 75 NW8 29.82R FRENCHVILLE FAIR 61 50 67 NW16G25 29.81R CARIBOU PTSUNNY 64 56 75 NW7 29.80R $$ NHZ002-005-008-009-011-012-014-181400- NEW HAMPSHIRE CITY SKY/WX TMP DP RH WIND PRES REMARKS PORTSMOUTH MOSUNNY 71 64 78 NW10 29.85S ROCHESTER FAIR 70 62 76 NW13 29.87R NASHUA FAIR 70 61 73 NW10G18 29.90R MANCHESTER FAIR 70 57 63 NW14 29.88R CONCORD FAIR 68 57 68 NW12G20 29.90S LACONIA FAIR 66 53 63 NW8 29.91S PLYMOUTH FAIR 64 53 68 W7 29.92S BERLIN FAIR 62 54 74 VRB3 29.93R WHITEFIELD FAIR 62 54 74 NW8 29.95S JAFFREY FAIR 68 59 73 VRB7 29.93R KEENE FAIR 71 58 63 N13 29.93R LEBANON FAIR 67 51 56 N10 29.95R MT WASHINGTON PTSUNNY 43 36 75 NW49 N/A $$ VTZ005-007-008-181400- VERMONT CITY SKY/WX TMP DP RH WIND PRES REMARKS ST JOHNSBURY N/A 64 46 52 MISG 29.95R MONTPELIER FAIR 61 47 59 NW9 30.01R BURLINGTON FAIR 68 47 46 N10 29.98S $$ MAZ007-012-024-CTZ003-RIZ002-NYZ038-NYZ072-181400- SOUTHERN NEW ENGLAND AND NY CITY SKY/WX TMP DP RH WIND PRES REMARKS BOSTON FAIR 74 62 66 NW12 29.86R WORCESTER MOSUNNY 66 57 72 N8G17 29.91R NANTUCKET CLOUDY 72 70 93 N6 29.81S PROVIDENCE FAIR 76 65 68 N15 29.86R HARTFORD FAIR 73 63 70 N10 29.90R ALBANY FAIR 70 54 56 N10 29.97R NEW YORK CITY FAIR 75 61 61 N8 29.88R $$ ANZ081-ANZ082-ANZ150-NHZ014-MEZ023>029-181400- COASTAL MARINE OBSERVATIONS STATION/POSITION TIME TEMP WIND PRES WAVE AIR SEA DIR/SP/G HT/PER (UTC) (F) (DEG/KT/KT) (MB) (FT/S) MOUNT DESERT ROC 1200 58 260/ 14/ 15 1008.7R MATINICUS ROCK 1200 60 280/ 14/ 15 1008.9R ISLE OF SHOALS 1200 67 320/ 12/ 14 1010.2R JEFFREYS LEDGE 1236 67 N/A 2/ 9 $$ .............KEY.............. WCI - WIND CHILL TC - TEMPERATURE IN CELSIUS VSB - VISIBILITY IN MILES HX - HEAT INDEX FAIR- INDICATES FEW OR NO CLOUDS BELOW 12,000 FT, WITH NO SIGNIFICANT WEATHER AND/OR OBSTRUCTIONS TO VISIBILITY.

USA.gov is the U.S. government's official web portal to all federal, state and local government web resources and services.